Date String (YYYY-MM-DD hh:mm:ss) UTC,Instrument flags,absolute air pressure of the measurement (hPa),sample flow rate (lpm),inlet stack bypass flow (lpm),air temperature of the measurement (°C),ambient temperature measured by the external sensor (°C),aerosol sample conditioner tube jacket temperature (°C),OPC LED temperature (°C),internal box temperature (°C),relative humidity of the measurement (%),span deviation,mass concentration of particles derived from Lorenz-Mie calculation of OPC scattering (μg/m³),mass concentration of particles derived from Lorenz-Mie calculation of OPC scattering (μg/m³),mass concentration of particles derived from Lorenz-Mie calculation of OPC scattering (μg/m³)
DateTimeUTC,F1_M11,P_M11,Q1_M11,Q2_M11,T1_M11,T2_M11,T3_M11,T4_M11,T5_M11,U1_M11,ZSPAN_M11,X2_M11,X0_M11,X1_M11
2023-07-07 15:00:00,SystemResetWarning,0832.1,4.99,000.00,029.8,028.5,000.0,038.3,031.4,28.3,0000.0,0004.22,0007.94,0003.76
2023-07-07 15:01:00,SystemResetWarning,0832.1,5.01,000.00,029.9,028.5,000.0,038.3,031.4,27.9,0000.0,0004.23,0007.83,0003.79
2023-07-07 15:02:00,SystemResetWarning,0832.1,5.00,000.00,029.9,028.5,000.0,038.3,031.4,28.2,0000.0,0004.26,0007.89,0003.81
2023-07-07 15:03:00,SystemResetWarning,0832.1,5.01,000.00,029.9,028.0,000.0,038.3,031.4,27.6,0000.0,0004.29,0008.36,0003.84
2023-07-07 15:04:00,SystemResetWarning,0832.0,4.99,000.00,029.8,026.5,000.0,038.2,031.2,27.1,0000.0,0004.37,0008.60,0003.87
2023-07-07 15:05:00,SystemResetWarning,0832.0,5.00,000.00,029.8,026.0,000.0,038.1,031.1,28.1,0000.0,0004.39,0008.81,0003.89
2023-07-07 15:06:00,SystemResetWarning,0832.0,5.00,000.00,029.7,026.2,000.0,038.1,030.8,28.4,0000.0,0004.39,0008.60,0003.90
2023-07-07 15:07:00,SystemResetWarning,0832.0,5.01,000.00,029.6,026.5,000.0,038.2,030.8,28.7,0000.0,0004.41,0008.52,0003.92
2023-07-07 15:08:00,SystemResetWarning,0832.0,5.00,000.00,029.6,026.8,000.0,038.2,030.9,28.5,0000.0,0004.43,0008.58,0003.94
2023-07-07 15:09:00,SystemResetWarning,0832.1,5.00,000.00,029.6,027.0,000.0,038.1,030.9,28.8,0000.0,0004.47,0008.52,0003.96
2023-07-07 15:10:00,SystemResetWarning,0832.0,4.99,000.00,029.6,027.3,000.0,038.2,031.0,28.6,0000.0,0004.50,0008.16,0003.99
2023-07-07 15:11:00,SystemResetWarning,0832.0,5.00,000.00,029.6,027.5,000.0,038.2,031.0,29.1,0000.0,0004.52,0008.21,0004.01
2023-07-07 15:12:00,SystemResetWarning,0832.0,5.00,000.00,029.6,027.7,000.0,038.1,031.0,28.9,0000.0,0004.58,0008.74,0004.04
2023-07-07 15:13:00,SystemResetWarning,0832.0,5.00,000.00,029.6,027.8,000.0,038.1,031.1,28.0,0000.0,0004.60,0008.78,0004.07
2023-07-07 15:14:00,SystemResetWarning,0832.1,5.00,000.00,029.6,027.9,000.0,038.1,031.1,27.8,0000.0,0004.61,0008.33,0004.08
2023-07-07 15:15:00,SystemResetWarning,0832.0,5.00,000.00,029.6,028.0,000.0,038.1,031.1,27.4,0000.0,0004.61,0008.25,0004.08
2023-07-07 15:16:00,SystemResetWarning,0832.0,4.99,000.00,029.6,028.1,000.0,038.1,031.1,28.1,0000.0,0004.64,0008.15,0004.11
2023-07-07 15:17:00,SystemResetWarning,0832.0,5.00,000.00,029.6,028.1,000.0,038.2,031.1,28.3,0000.0,0004.65,0008.17,0004.13
2023-07-07 15:18:00,SystemResetWarning,0832.0,5.03,000.00,029.6,028.2,000.0,038.2,031.2,28.7,0000.0,0004.69,0008.30,0004.14
2023-07-07 15:19:00,SystemResetWarning,0832.0,4.99,000.00,029.7,028.3,000.0,038.2,031.2,28.8,0000.0,0004.74,0008.80,0004.16
2023-07-07 15:20:00,SystemResetWarning,0832.0,4.99,000.00,029.7,028.3,000.0,038.2,031.2,29.0,0000.0,0004.75,0009.05,0004.17
2023-07-07 15:21:00,SystemResetWarning,0832.0,5.01,000.00,029.7,028.3,000.0,038.2,031.2,29.4,0000.0,0004.76,0009.19,0004.17
2023-07-07 15:22:00,SystemResetWarning,0832.0,5.01,000.00,029.7,028.4,000.0,038.2,031.2,28.8,0000.0,0004.80,0009.22,0004.18
2023-07-07 15:23:00,SystemResetWarning,0832.0,4.98,000.00,029.7,027.6,000.0,038.1,031.2,29.4,0000.0,0004.85,0008.98,0004.19
2023-07-07 15:24:00,SystemResetWarning,0832.0,5.00,000.00,029.7,025.8,000.0,038.0,031.0,28.7,0000.0,0004.85,0009.07,0004.20
2023-07-07 15:25:00,SystemResetWarning,0832.0,5.01,000.00,029.6,025.1,000.0,037.9,030.8,29.2,0000.0,0004.87,0009.78,0004.21
2023-07-07 15:26:00,SystemResetWarning,0832.0,5.01,000.00,029.5,025.2,000.0,037.9,030.6,28.7,0000.0,0004.90,0009.95,0004.24
2023-07-07 15:27:00,SystemResetWarning,0832.0,4.99,000.00,029.4,025.6,000.0,037.9,030.5,28.7,0000.0,0004.91,0009.96,0004.24
2023-07-07 15:28:00,SystemResetWarning,0832.1,5.00,000.00,029.3,026.0,000.0,037.9,030.6,29.5,0000.0,0004.91,0009.94,0004.23
2023-07-07 15:29:00,SystemResetWarning,0832.0,5.01,000.00,029.3,026.4,000.0,037.9,030.6,29.2,-000.3,0004.88,0009.82,0004.24
2023-07-07 15:30:00,SystemResetWarning,0832.1,5.00,000.00,029.3,026.7,000.0,037.9,030.7,28.6,-000.5,0004.86,0009.30,0004.26
2023-07-07 15:31:00,SystemResetWarning,0832.1,4.98,000.00,029.3,027.0,000.0,037.9,030.7,28.4,-000.0,0004.88,0009.09,0004.27
2023-07-07 15:32:00,SystemResetWarning,0832.0,5.01,000.00,029.3,027.2,000.0,037.9,030.8,27.9,-000.5,0004.89,0009.06,0004.29
2023-07-07 15:33:00,SystemResetWarning,0832.1,5.02,000.00,029.3,027.4,000.0,037.9,030.8,28.1,-000.6,0004.89,0009.17,0004.32
2023-07-07 15:34:00,SystemResetWarning,0832.0,5.00,000.00,029.3,027.6,000.0,037.9,030.8,27.8,-000.9,0004.87,0009.13,0004.33
2023-07-07 15:35:00,SystemResetWarning,0832.1,4.99,000.00,029.3,027.7,000.0,037.9,030.9,27.6,-000.9,0004.89,0009.03,0004.36
2023-07-07 15:36:00,SystemResetWarning,0832.0,4.99,000.00,029.4,027.8,000.0,037.9,030.9,27.0,-000.3,0004.90,0008.38,0004.37
2023-07-07 15:37:00,SystemResetWarning,0832.1,5.01,000.00,029.4,027.9,000.0,037.9,030.9,28.0,-000.8,0004.89,0008.26,0004.37
2023-07-07 15:38:00,SystemResetWarning,0832.1,5.02,000.00,029.4,028.0,000.0,037.9,031.0,27.6,-001.9,0004.89,0008.27,0004.39
2023-07-07 15:39:00,SystemResetWarning,0832.0,4.99,000.00,029.4,028.1,000.0,037.9,031.0,28.5,-002.2,0004.92,0008.32,0004.42
2023-07-07 15:40:00,SystemResetWarning,0832.0,4.99,000.00,029.5,028.2,000.0,037.9,031.0,28.3,-000.7,0004.96,0008.61,0004.44
2023-07-07 15:41:00,SystemResetWarning,0832.1,5.01,000.00,029.5,028.2,000.0,037.9,031.1,28.9,-000.4,0004.97,0009.15,0004.45
2023-07-07 15:42:00,SystemResetWarning,0832.0,5.00,000.00,029.5,028.3,000.0,038.0,031.1,29.6,0000.0,0004.97,0009.33,0004.46
2023-07-07 15:43:00,SystemResetWarning,0832.0,5.00,000.00,029.5,028.3,000.0,038.0,031.1,29.9,0000.0,0005.00,0009.83,0004.46
2023-07-07 15:44:00,SystemResetWarning,0832.0,4.98,000.00,029.6,027.1,000.0,037.9,031.0,28.7,0000.0,0004.99,0009.71,0004.45
2023-07-07 15:45:00,SystemResetWarning,0832.0,5.00,000.00,029.5,025.5,000.0,037.8,030.8,29.0,0000.0,0004.94,0009.49,0004.44
2023-07-07 15:46:00,SystemResetWarning,0832.0,5.01,000.00,029.4,025.0,000.0,037.7,030.6,28.5,0000.0,0004.93,0009.47,0004.44
2023-07-07 15:47:00,SystemResetWarning,0832.0,5.01,000.00,029.3,025.2,000.0,037.7,030.3,29.7,0000.0,0004.91,0009.41,0004.43
2023-07-07 15:48:00,SystemResetWarning,0831.9,5.00,000.00,029.2,025.6,000.0,037.7,030.4,29.9,0000.0,0004.90,0009.31,0004.43
2023-07-07 15:49:00,SystemResetWarning,0831.9,5.00,000.00,029.1,026.0,000.0,037.7,030.4,29.8,0000.0,0004.92,0009.36,0004.42
2023-07-07 15:50:00,SystemResetWarning,0831.9,5.00,000.00,029.1,026.4,000.0,037.7,030.5,30.3,0000.0,0004.94,0009.44,0004.43
2023-07-07 15:51:00,SystemResetWarning,0831.9,5.00,000.00,029.1,026.7,000.0,037.7,030.6,29.7,0000.0,0004.91,0009.24,0004.43
2023-07-07 15:52:00,SystemResetWarning,0831.9,5.00,000.00,029.1,027.0,000.0,037.7,030.6,30.0,0000.0,0004.92,0008.75,0004.43
2023-07-07 15:53:00,SystemResetWarning,0831.8,4.98,000.00,029.2,027.2,000.0,037.7,030.7,30.4,0000.0,0004.90,0008.49,0004.43
2023-07-07 15:54:00,SystemResetWarning,0831.9,5.00,000.00,029.2,027.4,000.0,037.7,030.7,30.2,0000.0,0004.89,0007.98,0004.44
2023-07-07 15:55:00,SystemResetWarning,0831.9,5.00,000.00,029.2,027.6,000.0,037.7,030.7,29.4,-001.1,0004.90,0008.00,0004.45
2023-07-07 15:56:00,SystemResetWarning,0831.9,5.00,000.00,029.2,027.7,000.0,037.7,030.8,29.9,-001.8,0004.93,0008.07,0004.46
2023-07-07 15:57:00,SystemResetWarning,0831.9,5.00,000.00,029.3,027.8,000.0,037.7,030.8,29.9,-000.6,0004.98,0008.16,0004.48
2023-07-07 15:58:00,SystemResetWarning,0831.9,5.00,000.00,029.3,027.9,000.0,037.8,030.9,29.3,0000.0,0005.02,0008.22,0004.49
2023-07-07 15:59:00,SystemResetWarning,0831.9,5.00,000.00,029.3,028.0,000.0,037.8,030.9,28.6,0000.0,0005.04,0008.25,0004.50
